Terminal Aerodrome Forecast
Issued by NWS

Home | Current Version | Previous Version | Text Only | Print | Product List | Glossary On
Versions: 1 2 3 4 5 6 7 8 9 10 11 12 13 14 15 16 17 18 19 20 21 22 23 24 25 26 27 28 29 30 31 32 33 34 35 36 37 38 39 40 41 42 43 44 45 46 47 48 49 50
000
FTUS43 KDMX 071138
TAFFOD
TAF
KFOD 071138Z 0712/0812 27011G18KT P6SM SCT120
     FM072100 29015G25KT 5SM -SHSN BLSN OVC020
     FM080200 31022G31KT 1/2SM -SHSN BLSN OVC002=

USA.gov is the U.S. government's official web portal to all federal, state and local government web resources and services.